Погода в Называевске

Погода в Называевске : погода сейчас, прогноз погоды и архив. Всё, что Вы хотите узнать о погоде в Называевске!

Хотите узнать прогноз погоды в Называевске? Тогда Вам сюда: Погода в Называевске

Поиск расширенной информации на нашем сайте:

Другие новости

Новости СМИ2

Главная страница сайта

Новости сайта

03.07.2017

Напоминаем, что на нашем специализированном сайте Метеоцентр.Азия вы можете получить высокодетализированные автоматические прогнозы погоды по пунктам России, СНГ и мира в авиационном формате (включающие направление и скорость ветра, видимость, явления погоды, количество и форму облачности, нижнюю и верхнюю границу облачности).


Погода в Называевске - сегодня

Время (UTC), дата Ветер
(°,м/с) 
Видим.   Явления Облачность Т
(°С)
Тd
(°С)
f(%) Тe
(°С)
Pmin
(гПа)
dP
(гПа)
Po
(мм)
O2
(г/м3)
Тmin Tmax R s Состояние
почвы
06 18.09.17 250 (З) 40000 м    9/1 600 м средняя 
[Cu hum|Ac As]
+14.2 +6.6 60 +14  1010.2  -0.5  746  285           
09 18.09.17 260 (З) 5{10}  40000 м    8/3 600 м средняя, верхняя 
[Cu med, cong|Ac trans|Ci sp]
+16.6 +6.6 52 +16  1009.4  -0.6  746  282           
15 18.09.17 300 (СЗ) 20000 м  в посл. час ливневой дождь  9/5 600 м кучево-дожд., средняя 
[Cb cap|Ac cuf]
+10.7 +7.1 78 +10  1011.2  1.3  747  288    +16.7     
18 18.09.17 300 (СЗ) 20000 м  {ливн. осадки}  9/0 средняя 
[Ac trans]
+10.1 +6.6 79 +9  1012.7  1.5  748  290           
21 18.09.17 290 (З) 20000 м    ясно 
+8.5 +5.3 80 +7  1013.8  0.9  749  292           
00 19.09.17 280 (З) 20000 м    3/0 средняя 
[Ac cuf]
+6.3 +4.1 86 +5  1015.6  1.7  750  295           
03 19.09.17 300 (СЗ) 40000 м    9/9 1200 м 
[Sc]
+8.6 +4.6 76 +7  1017.5  752  293  +6.1        влажная 
06 19.09.17 310 (СЗ) 5-10{10}  40000 м    9/9 1200 м 
[Sc]
+10.4 +3.5 62 +9  1019.1  1.6  753  292           
12 19.09.17 300 (СЗ) 40000 м    9/9 1230 м 
[Sc]
+10.6 +3.8 63 +11  1021.1  754  292           
15 19.09.17 270 (З) 20000 м    9/9 1300 м 
[Sc]
+9.3 +2.8 64 +10  1022.2  755  294    +11.3       
18 19.09.17 220 (ЮЗ) 20000 м    9/0 средняя 
[Ac As]
+6.4 +3.8 83 +6  1022.4  755  297           
21 19.09.17 180 (Ю) 4000 м  слаб. дождь  9/0 средняя 
[Ac As]
+7.4 +4.6 82 +7  1021  -1.3  754  295           
00 20.09.17 160 (Ю) 20000 м  {дождь}  9/3 600 м кучево-дожд., средняя 
[Cb cap|Ac As]
+7.7 +4.4 80 +6  1018.3  -2.6  752  294           
03 20.09.17 150 (ЮВ) 40000 м  в посл. час гроза{ливн. осадки}  9/5 600 м кучево-дожд., средняя 
[Cb cap|Ac As]
+7.9 +5.4 84 +6  1015.7  -2.5  750  293  +6       
06 20.09.17 200 (Ю) 1{10}  8000 м  слаб. ливневой дождь{гроза}  9/6 600 м кучево-дожд., средняя 
[Cb cap|Ac As]
+10.7 +6.9 77 +12  1015.6  0.1  750  290           
09 20.09.17 190 (Ю) 40000 м  в посл. час ливневой дождь  9/3 600 м кучево-дожд., средняя 
[Cb cap|Ac As]
+12 +9.1 82 +11  1011.4  -4.1  747  287           
12 20.09.17 240 (ЮЗ) 40000 м  {ливн. осадки}  6/0 средняя, верхняя 
[Ac cuf|Cc]
+16.1 +12.2 78 +21  1010.7  -0.5  747  282           
15 20.09.17 250 (З) 4000 м  дымка  6/0 средняя 
[Ac cuf]
+11.9 +10.4 91 +14  1011  0.1  747  286    +16.2     
18 20.09.17 290 (З) 20000 м    ясно 
+12.6 +9.4 81 +13  1010.9  0.1  747  286           
21 20.09.17 270 (З) 20000 м    ясно 
+9 +7.2 88 +8  1011.6  0.5  747  290           
00 21.09.17 300 (СЗ) 20000 м    9/9 720 м кучево-дожд. 
[Cb cap]
+10.1 +7.6 84 +9  1011.9  0.4  748  289           
03 21.09.17 310 (СЗ) 40000 м    9/8 750 м кучево-дожд., средняя 
[Cb cap|Ac cuf]
+10.4 +7.3 81 +10  1013  1.2  749  289  +8.4         
06 21.09.17 340 (С) 40000 м    10/10 630 м кучево-дожд. 
[Cb cap]
+10.6 +6.2 74 +9  1013.8  0.7  749  290           
12 21.09.17 010 (С) 40000 м  {ливн. осадки, морось}  9/8 660 м кучево-дожд., средняя 
[Cb cap|Ac cuf]
+8 +4.5 79 +6  1017.4  2.3  752  294           
15 21.09.17 350 (С) 20000 м    10/10 1110 м 
[Sc]
+7.5 +4 78 +6  1019  1.6  753  295    +11.2  0.4     
Время (UTC), дата Ветер
(°,м/с) 
Видим.   Явления Облачность Т
(°С)
Тd
(°С)
f(%) Тe
(°С)
Pmin
(гПа)
dP
(гПа)
Po
(мм)
O2
(г/м3)
Тmin Tmax R s Состояние
почвы

Для получения пояснительной информации подведите курсор к названию столбца.

ПОГОДА в Называевске - архив

Всё, что Вы хотите узнать о погоде в Называевске - удобно и подробно!

Выберите нужную дату (начиная с 1 января 2015* года) и нажмите кнопку "Найти".
Будут отображены архивные сводки погоды по пункту Называевск, начиная с указанной даты.


Отображать данные в формате CSV (для использования в таблицах Excel)


Внимание! Наш архив погоды предназначен исключительно для личного некоммерческого использования в познавательных целях. Если Вам необходимы официальные справки о состоянии погоды (для производственных, юридических, коммерческих и т.п. целей), обращайтесь в органы Росгидромета.

*Примечание: данная дата относится к архиву по метеостанциям СССР (Россия, СНГ, Балтия).
Архив по метеостанциям Зарубежной Европы и Азии (кроме Китая) хранится 10 дней, по другим регионам земного шара (Китай, Африка, Америка, Австралия, Океания) - 1 день.

Называевск - район местоположения метеостанции


Название, широта, долгота, высота метеостанции:
Называевск 55.6°ш. 71.4°д. 126 м над ур. моря [Российская Федерация]

Дополнительная информация

В oтличие oт бoльшинства пoгoдных сайтoв мы публикуем пoдрoбную метеoинфoрмацию в детальнoм прoфессиoнальнoм фoрмате.

Характеристики температуры и влажнoсти вoздуха измеряются на высoте 2 м в тени вдали oт зданий и деревьев.
Скoрoсть ветра измеряется на высoте 10 м (на урoвне рoста челoвека скoрoсть ветра ниже в 1.5-2 раза). Если метеoстанция нахoдится в гoрoде или в лесу, тo скoрoсть ветра занижена на 2-4 м/с пo сравнению с oткрытым местoм. Скoрoсть ветра над акватoриями крупных рек и oзёр, а также на вершинах хoлмoв на 2-5 м/с выше, чем в oбычных услoвиях.
Атмoсфернoе давление в разных тoчках местнoсти мoжет значительнo oтличаться oт давления на метеoстанции, в зависимoсти oт услoвий рельефа (при пoдъёме на 10 м давление пoнижается примернo на 1 мм рт.ст.).